Other Surface Observations
Issued by NWS

Home | Current Version | Previous Version | Text Only | Print | Product List | Glossary On
Versions: 1 2 3 4 5 6 7 8 9 10 11 12 13 14 15 16 17 18 19 20 21 22 23 24 25 26 27 28 29 30 31 32 33 34 35 36 37 38 39 40 41 42 43 44 45 46 47 48 49 50
000
SXUS52 KTAE 240805
OSOTAE
OSOTAE
North Florida/South Alabama/Southwest Georgia Weather Roundup
National Weather Service Tallahassee Florida
400 AM EDT FRI OCT 24 2014

Note: "fair" indicates few or no clouds below 12,000 feet with no
significant weather and/or obstructions to visibility.

!FLZ017-115-028-034-025-240900
...North Florida...

CITY           SKY/WX    TMP DP  RH WIND       PRES   REMARKS
TALLAHASSEE    MOCLDY    49  44  83 W3        30.02S
APALACHICOLA   PTCLDY    56  48  74 NE5       30.01S
PERRY          PTCLDY    45  45 100 CALM      30.02S
CROSS CITY       N/A     48  45  89 CALM      30.00F
JACKSONVILLE   CLEAR     47  47 100 CALM      30.00F
$$

!FLZ112-006-005-002-011-240900
...Florida Panhandle...

CITY           SKY/WX    TMP DP  RH WIND       PRES   REMARKS
MARIANNA       CLOUDY    52  52 100 CALM      30.03S
BONIFAY        NOT AVBL
PANAMA CITY NW FAIR      54  50  86 CALM      30.02S
TYNDALL AFB    CLOUDY    54  51  88 CALM      30.03S
TYND DRONE APT FAIR      55  51  87 MISG      30.01S
DE FUNIAK SPR  FAIR      54  47  77 N3        30.04S
EGLIN AFB      MOCLDY    57  46  66 N3        30.03F
DESTIN         CLOUDY    61  50  67 N7        30.03F
HURLBURT       CLOUDY    56  44  65 N8        30.02F
CRESTVIEW      CLOUDY    51  48  89 CALM      30.06S
PENSACOLA      CLOUDY    58  46  64 N6        30.04S
$$

!ALZ063-066-240900
...South Alabama...

CITY           SKY/WX    TMP DP  RH WIND       PRES   REMARKS
DOTHAN         CLOUDY    54  49  83 CALM      30.05F
OZARK CAIRNS   CLOUDY    52  48  86 W2        30.03F
FT RUCKER HELI CLOUDY    50  48  93 CALM      30.02F
RUCKER HELI 3  MOCLDY    51  49  92 NW2       30.06S
RUCKER HELI 2  FAIR      51  48  89 CALM      30.03F
FLORALA APT    CLOUDY    54  48  80 CALM      30.06S
ANDALUSIA      CLOUDY    57  47  69 CALM      30.04F
TROY           MOCLDY    48  46  93 CALM      30.06S
EUFALA         FAIR      49  47  93 CALM      30.03F
MOBILE         PTCLDY    53  47  79 N3        30.06F
$$

!GAZ120>161-240900
...Southwest and South Central Georgia...

CITY           SKY/WX    TMP DP  RH WIND       PRES   REMARKS
THOMASVILLE    FAIR      52  52 100 CALM      30.04S
BAINBRIDGE     CLOUDY    54  52  94 CALM      30.03S
MOODY AFB      MOCLDY    48  45  89 CALM      30.02S
VALDOSTA       PTCLDY    46  43  89 CALM      30.02S
MOULTRIE       CLOUDY    52  52 100 CALM      30.03F
BLAKELY        CLOUDY    52  50  93 CALM        N/A
ALBANY         MOCLDY    51  49  92 CALM      30.05S
TIFTON         FAIR      51  49  94 CALM      30.02S
FITZGERALD     FAIR      52  49  91 CALM      30.05R
CORDELE        FAIR      49  47  93 CALM      30.04S
AMERICUS       FAIR      48  48 100 CALM      30.05S
HOMERVILLE     FAIR      46  46 100 CALM      30.03R
$$

!GMZ750-755-770-775-240900
...Coastal and Buoy Obs...

STATION/POSITION TIME  TEMP    WIND        PRES    VSBY  WAVE
                       AIR SEA DIR/SP/G                  HT/PER
                 (UTC) (F)     (DEG/KT/KT) (MB)    (MI)  (FT/S)
KEATON BEACH     0800   54      50/  4/  6 1016.3F
CEDAR KEY        0655   63      70/ 12/ 13 1016.1F
C TOWER          0800   69      50/ 12/ 14 1015.8F
APALACHICOLA BUO 0700   73 80   70/ 12/ 16 1015.2R         3/ 4
PANAMA CITY BUOY NOT AVBL
MOBILE BUOY      0651   72 78  360/  8/ 10 1017.2          3/ 7
ORANGE BCH AL BU 0700   70 78   30/ 14/ 16 1016.7F         2/ 6
$$



USA.gov is the U.S. government's official web portal to all federal, state and local government web resources and services.